Skip Page Navigation
NASA JPL Caltech
NASA Logo - Jet Propulsion Laboratory + View the NASA Portal
+ Center for Near-Earth Object Studies
JPL Home Earth Solar System Stars & Galaxies Technology
JPL Solar System Dynamics
BODIES ORBITS EPHEMERIDES TOOLS PHYSICAL DATA DISCOVERY FAQ SITE MAP
JPL Small-Body Database Browser
Search: [ help ]  
48323 (2002 NN33)
Classification: Main-belt Asteroid          SPK-ID: 2048323
Ephemeris | Orbit Diagram | Orbital Elements | Mission Design | Physical Parameters | Discovery Circumstances | Close-Approach Data ]

[ show orbit diagram ]
Orbital Elements at Epoch 2459000.5 (2020-May-31.0) TDB
Reference: JPL 18 (heliocentric ecliptic J2000)
 Element Value Uncertainty (1-sigma)   Units 
e .261609416067166 4.6052e-08  
a 2.443558950212011 1.2395e-08 au
q 1.80430092012135 1.1676e-07 au
i 5.935674223928169 3.9525e-06 deg
node 241.0853655060969 4.8141e-05 deg
peri 85.04863096144332 4.9058e-05 deg
M 245.7455660673543 1.505e-05 deg
tp 2459443.295521962673
(2021-Aug-16.79552196)
6.0914e-05 TDB
period 1395.187761382936
3.82
1.0616e-05
2.907e-08
d
yr
n .2580297863587632 1.9633e-09 deg/d
Q 3.082816980302673 1.5638e-08 au
  Orbit Determination Parameters
   # obs. used (total)      1216  
   data-arc span      10373 days (28.40 yr)  
   first obs. used      1991-12-29  
   last obs. used      2020-05-23  
   planetary ephem.      DE431  
   SB-pert. ephem.      SB431-N16  
   condition code      0  
   norm. resid. RMS      .53427  
   source      ORB  
   producer      Otto Matic  
   solution date      2020-Nov-12 23:37:56  

Additional Information
 Earth MOID = .804643 au 
 Jupiter MOID = 2.31059 au 
 T_jup = 3.445 
[ show covariance matrix ]

Ephemeris | Orbit Diagram | Orbital Elements | Mission Design | Physical Parameters | Discovery Circumstances | Close-Approach Data ]

Physical Parameter Table
Parameter Symbol Value Units Sigma Reference Notes
absolute magnitude H 14.6   n/a MPO432041  

48323 (2002 NN33)          Discovered 2002-Jul-14 by LINEAR at Socorro
Reference: 20020921/Numbers.arcLast Updated: 2004-04-19

[ show close-approach data ]
Ephemeris | Orbit Diagram | Orbital Elements | Mission Design | Physical Parameters | Discovery Circumstances | Close-Approach Data ]
ABOUT SSD CREDITS/AWARDS PRIVACY/COPYRIGHT GLOSSARY LINKS
FirstGov 2020-Nov-27 18:03 UT
(server date/time)  
NASA Home Page
Site Manager:   Ryan S. Park
Webmaster  Alan B. Chamberlin